CW8248 Weather Reports


Display with metric or nautical units.
time (UTC)temp
F
wind
direction
speed
MPH
gust
MPH
rain 1hr
in
rain 24hr
in
rain mn
in
humidity
%
barometer
mb
20260902192538 64 269 2.0 10.0 0.00 0.00 0.00 62 1007.3
20260902192039 65 237 3.0 5.0 0.00 0.00 0.00 58 1007.2
20260902191540 65 219 3.0 5.0 0.00 0.00 0.00 57 1007.1
20260902191038 65 209 0.0 3.0 0.00 0.00 0.00 53 1007.0
20260902190538 66 209 0.0 3.0 0.00 0.00 0.00 56 1006.9
20260902190039 66 206 1.0 5.0 0.00 0.00 0.00 55 1006.9
20260902185538 66 206 2.0 6.0 0.00 0.00 0.00 52 1007.0
20260902185037 66 186 3.0 7.0 0.00 0.00 0.00 51 1007.0
20260902184537 66 208 4.0 7.0 0.00 0.00 0.00 51 1006.9
20260902184039 66 201 3.0 6.0 0.00 0.00 0.00 51 1006.9
20260902183537 67 186 4.0 7.0 0.00 0.00 0.00 51 1006.9
20260902183039 67 186 5.0 7.0 0.00 0.00 0.00 51 1006.9
20260902182536 67 175 4.0 7.0 0.00 0.00 0.00 50 1006.9
20260902182037 67 172 1.0 6.0 0.00 0.00 0.00 49 1006.9
20260902181549 67 160 3.0 6.0 0.00 0.00 0.00 52 1006.8
20260902181036 66 148 1.0 5.0 0.00 0.00 0.00 52 1006.9
20260902180535 65 79 0.0 2.0 0.00 0.00 0.00 52 1007.0
20260902180035 65 78 0.0 3.0 0.00 0.00 0.00 51 1007.0
20260902175535 66 77 0.0 5.0 0.00 0.00 0.00 51 1007.0
20260902175036 67 112 1.0 5.0 0.00 0.00 0.00 48 1007.1
20260902174533 69 196 1.0 5.0 0.00 0.00 0.00 46 1007.2
20260902174037 70 205 3.0 5.0 0.00 0.00 0.00 44 1007.2
20260902173533 71 191 4.0 5.0 0.00 0.00 0.00 45 1007.2
20260902173042 69 196 2.0 5.0 0.00 0.00 0.00 48 1007.2
20260902172534 71 204 3.0 5.0 0.00 0.00 0.00 46 1007.2
20260902172031 71 206 3.0 4.0 0.00 0.00 0.00 46 1007.3
20260902171529 65 173 0.0 2.0 0.00 0.00 0.00 54 1007.3
20260902171028 65 173 0.0 3.0 0.00 0.00 0.00 55 1007.5
20260902170530 65 173 0.0 5.0 0.00 0.00 0.00 54 1007.6
20260902170028 67 173 2.0 5.0 0.00 0.00 0.00 54 1007.7
20260902165531 65 236 2.0 3.0 0.00 0.00 0.00 54 1007.6
20260902165026 63 236 0.0 1.0 0.00 0.00 0.00 57 1007.7
20260902164526 63 236 0.0 4.0 0.00 0.00 0.00 58 1007.8
20260902164025 64 236 1.0 5.0 0.00 0.00 0.00 56 1007.8
20260902163526 65 236 3.0 5.0 0.00 0.00 0.00 53 1007.8
20260902163025 66 223 2.0 5.0 0.00 0.00 0.00 54 1007.8
20260902162525 66 177 2.0 5.0 0.00 0.00 0.00 56 1007.9
20260902162023 65 159 2.0 7.0 0.00 0.00 0.00 53 1007.9
20260902161525 67 169 3.0 7.0 0.00 0.00 0.00 53 1008.1
20260902161025 67 186 5.0 7.0 0.00 0.00 0.00 53 1008.1
20260902160520 65 213 3.0 7.0 0.00 0.00 0.00 56 1008.2
20260902160020 65 233 5.0 7.0 0.00 0.00 0.00 57 1008.3
20260902155520 64 232 4.0 8.0 0.00 0.00 0.00 59 1008.2
20260902155019 64 239 5.0 8.0 0.00 0.00 0.00 59 1008.3
20260902154517 64 237 4.0 9.0 0.00 0.00 0.00 59 1008.4
20260902154017 63 250 4.0 7.0 0.00 0.00 0.00 60 1008.3
20260902153514 63 239 5.0 7.0 0.00 0.00 0.00 60 1008.3
20260902153014 63 240 5.0 8.0 0.00 0.00 0.00 61 1008.4
20260902152514 63 234 5.0 8.0 0.00 0.00 0.00 61 1008.5
20260902152013 63 225 5.0 7.0 0.00 0.00 0.00 61 1008.5
20260902151513 63 229 4.0 7.0 0.00 0.00 0.00 61 1008.4
20260902151010 62 244 5.0 7.0 0.00 0.00 0.00 64 1008.6
20260902150509 61 233 3.0 8.0 0.00 0.00 0.00 65 1008.6
20260902150014 61 239 5.0 8.0 0.00 0.00 0.00 64 1008.6
20260902145509 60 262 0.0 4.0 0.00 0.00 0.00 64 1008.6
20260902145011 60 262 0.0 7.0 0.00 0.00 0.00 64 1008.6
20260902144506 60 262 2.0 7.0 0.00 0.00 0.00 65 1008.7
20260902144006 60 191 1.0 6.0 0.00 0.00 0.00 65 1008.9
20260902143507 60 248 0.0 3.0 0.00 0.00 0.00 63 1008.8
20260902143006 60 248 0.0 0.0 0.00 0.00 0.00 64 1009.0
20260902142505 60 248 0.0 0.0 0.00 0.00 0.00 64 1009.1
20260902142004 60 248 0.0 3.0 0.00 0.00 0.00 64 1009.1
20260902141504 60 248 0.0 3.0 0.00 0.00 0.00 64 1009.1
20260902141004 60 248 0.0 3.0 0.00 0.00 0.00 63 1009.1
20260902140504 60 248 0.0 3.0 0.00 0.00 0.00 63 1009.1
20260902140004 60 325 0.0 5.0 0.00 0.00 0.00 61 1009.0
20260902135504 59 191 2.0 5.0 0.00 0.00 0.00 61 1009.1
20260902135101 59 233 1.0 5.0 0.00 0.00 0.00 61 1009.1
20260902134559 59 346 1.0 3.0 0.00 0.00 0.00 61 1009.1
20260902134059 58 350 0.0 1.0 0.00 0.00 0.00 62 1009.1
20260902133557 58 350 0.0 2.0 0.00 0.00 0.00 62 1009.1
20260902133106 57 350 0.0 3.0 0.00 0.00 0.00 63 1009.1
20260902132558 57 350 0.0 3.0 0.00 0.00 0.00 62 1009.2
20260902132056 57 350 0.0 4.0 0.00 0.00 0.00 61 1009.2
20260902131557 57 350 1.0 4.0 0.00 0.00 0.00 63 1009.2
20260902131056 57 350 0.0 3.0 0.00 0.00 0.00 63 1009.3
20260902130555 57 350 0.0 2.0 0.00 0.00 0.00 63 1009.3
20260902130054 57 350 0.0 2.0 0.00 0.00 0.00 62 1009.4
20260902125555 57 347 0.0 3.0 0.00 0.00 0.00 62 1009.4
20260902125055 58 347 0.0 6.0 0.00 0.00 0.00 61 1009.4
20260902124554 58 346 1.0 6.0 0.00 0.00 0.00 63 1009.3
20260902124052 58 46 1.0 4.0 0.00 0.00 0.00 60 1009.3
20260902123551 58 339 0.0 2.0 0.00 0.00 0.00 59 1009.3
20260902123106 58 339 0.0 2.0 0.00 0.00 0.00 59 1009.3
20260902122553 59 359 0.0 3.0 0.00 0.00 0.00 57 1009.3
20260902122051 60 342 0.0 4.0 0.00 0.00 0.00 56 1009.3
20260902121551 60 337 0.0 4.0 0.00 0.00 0.00 55 1009.3
20260902121050 60 346 0.0 5.0 0.00 0.00 0.00 55 1009.2
20260902120550 60 349 1.0 5.0 0.00 0.00 0.00 56 1009.1
20260902120048 60 346 1.0 5.0 0.00 0.00 0.00 56 1009.4
20260902115548 60 358 0.0 4.0 0.00 0.00 0.00 56 1009.4
20260902115049 60 345 1.0 5.0 0.00 0.00 0.00 56 1009.6
20260902114552 60 4 1.0 6.0 0.00 0.00 0.00 55 1009.6
20260902114045 60 358 1.0 6.0 0.00 0.00 0.00 55 1009.6
20260902113546 61 340 1.0 7.0 0.00 0.00 0.00 54 1009.5
20260902113045 60 346 3.0 7.0 0.00 0.00 0.00 54 1009.5
20260902113005 60 335 2.0 7.0 0.00 0.00 0.00 54 1009.5
20260902112544 60 343 0.0 3.0 0.00 0.00 0.00 54 1009.5
20260902112049 61 334 0.0 11.0 0.00 0.00 0.00 53 1009.6
20260902111547 61 344 2.0 10.0 0.00 0.00 0.00 53 1009.6
20260902111044 61 323 2.0 11.0 0.00 0.00 0.00 53 1009.4
20260902110544 61 312 5.0 13.0 0.00 0.00 0.00 53 1009.4
20260902110058 61 333 1.0 13.0 0.00 0.00 0.00 54 1009.4
20260902105543 61 341 3.0 8.0 0.00 0.00 0.00 53 1009.5
20260902105043 61 319 3.0 11.0 0.00 0.00 0.00 53 1009.5
20260902104542 61 2 4.0 11.0 0.00 0.00 0.00 54 1009.5
20260902104042 61 335 4.0 10.0 0.00 0.00 0.00 55 1009.7
20260902103540 61 191 2.0 8.0 0.00 0.00 0.00 56 1009.6
20260902103041 61 11 1.0 7.0 0.00 0.00 0.00 58 1009.7
20260902102542 61 4 1.0 8.0 0.00 0.00 0.00 58 1009.8
20260902102038 61 352 2.0 8.0 0.00 0.00 0.00 60 1009.9
20260902101540 60 352 0.0 4.0 0.00 0.00 0.00 61 1010.0
20260902101037 61 2 0.0 4.0 0.00 0.00 0.00 61 1010.0
20260902100541 61 44 1.0 10.0 0.00 0.00 0.00 60 1010.0
20260902100037 61 191 3.0 10.0 0.00 0.00 0.00 61 1010.0
20260902095542 60 191 0.0 9.0 0.00 0.00 0.00 62 1010.0
20260902095036 60 279 0.0 3.0 0.00 0.00 0.00 62 1010.0
20260902094543 60 341 0.0 7.0 0.00 0.00 0.00 62 1010.0
20260902094035 60 200 1.0 7.0 0.00 0.00 0.00 63 1010.0
20260902093536 60 191 0.0 5.0 0.00 0.00 0.00 63 1010.0
20260902093035 60 191 0.0 5.0 0.00 0.00 0.00 63 1010.2
20260902092535 59 346 1.0 5.0 0.00 0.00 0.00 64 1010.2
20260902092039 58 191 0.0 4.0 0.00 0.00 0.00 65 1010.3
20260902091535 58 11 0.0 3.0 0.00 0.00 0.00 65 1010.3
20260902091033 59 11 0.0 3.0 0.00 0.00 0.00 65 1010.3
20260902090532 59 191 0.0 8.0 0.00 0.00 0.00 63 1010.2
20260902090032 60 191 2.0 9.0 0.00 0.00 0.00 62 1010.1
20260902085531 60 253 3.0 9.0 0.00 0.00 0.00 64 1010.1
20260902085031 60 272 3.0 10.0 0.00 0.00 0.00 63 1010.1
20260902084539 60 341 3.0 9.0 0.00 0.00 0.00 62 1010.2
20260902084031 60 333 1.0 7.0 0.00 0.00 0.00 63 1010.2
20260902083532 59 261 1.0 8.0 0.00 0.00 0.00 63 1010.3
20260902083029 60 245 0.0 8.0 0.00 0.00 0.00 62 1010.2
20260902082531 60 275 0.0 6.0 0.00 0.00 0.00 62 1010.2
20260902082027 60 275 0.0 8.0 0.00 0.00 0.00 62 1010.1
20260902081528 60 252 1.0 9.0 0.00 0.00 0.00 62 1010.2
20260902081027 60 253 3.0 9.0 0.00 0.00 0.00 63 1010.3
20260902080527 61 262 0.0 13.0 0.00 0.00 0.00 63 1010.3
20260902080027 61 191 3.0 13.0 0.00 0.00 0.00 63 1010.3
20260902075526 60 264 6.0 13.0 0.00 0.00 0.00 64 1010.3
20260902075025 61 247 2.0 8.0 0.00 0.00 0.00 61 1010.4
20260902074523 61 276 3.0 9.0 0.00 0.00 0.00 60 1010.3
20260902074023 61 256 2.0 9.0 0.00 0.00 0.00 60 1010.3
20260902073521 61 279 0.0 15.0 0.00 0.00 0.00 59 1010.4
20260902073021 62 244 2.0 15.0 0.00 0.00 0.00 58 1010.4
20260902072520 62 267 1.0 7.0 0.00 0.00 0.00 59 1010.5
20260902072019 62 253 0.0 7.0 0.00 0.00 0.00 59 1010.5
20260902071531 62 229 2.0 15.0 0.00 0.00 0.00 59 1010.5
20260902071021 62 258 5.0 15.0 0.00 0.00 0.00 60 1010.6
20260902070517 62 191 0.0 13.0 0.00 0.00 0.00 59 1010.6
20260902070017 62 191 2.0 13.0 0.00 0.00 0.00 58 1010.7
20260902065517 63 244 4.0 13.0 0.00 0.00 0.00 58 1010.8
20260902065017 63 265 2.0 10.0 0.00 0.00 0.00 57 1010.8
20260902064523 63 191 2.0 10.0 0.00 0.00 0.00 57 1010.8
20260902064016 63 191 1.0 10.0 0.00 0.00 0.00 57 1010.9
20260902063516 63 265 1.0 12.0 0.00 0.00 0.00 56 1011.0
20260902063028 63 279 3.0 12.0 0.00 0.00 0.00 56 1010.9
20260902062516 63 191 1.0 9.0 0.00 0.00 0.00 57 1010.9
20260902062018 63 271 2.0 13.0 0.00 0.00 0.00 57 1010.9
20260902061516 63 191 1.0 13.0 0.00 0.00 0.00 56 1011.0
20260902061016 63 244 0.0 13.0 0.00 0.00 0.00 56 1011.1
20260902060515 63 191 1.0 13.0 0.00 0.00 0.00 57 1011.0
20260902060018 64 265 1.0 14.0 0.00 0.00 0.00 56 1010.9
20260902055515 64 327 3.0 14.0 0.00 0.00 0.00 55 1010.9
20260902055016 64 191 0.0 8.0 0.00 0.00 0.00 56 1010.9
20260902054520 64 262 0.0 7.0 0.00 0.00 0.00 56 1011.0
20260902054015 64 191 1.0 10.0 0.00 0.00 0.00 56 1011.0
20260902053514 64 246 0.0 10.0 0.00 0.00 0.00 55 1011.0
20260902053021 64 312 0.0 9.0 0.00 0.00 0.00 55 1011.1
20260902052516 64 191 1.0 10.0 0.00 0.00 0.00 55 1011.1
20260902052012 64 191 0.0 10.0 0.00 0.00 0.00 55 1010.9
20260902051512 64 191 1.0 9.0 0.00 0.00 0.00 55 1010.9
20260902051012 64 265 3.0 9.0 0.00 0.00 0.00 55 1010.9
20260902050512 64 323 0.0 7.0 0.00 0.00 0.00 54 1010.7
20260902050014 64 191 1.0 7.0 0.00 0.00 0.00 55 1010.7
20260902045510 64 341 1.0 8.0 0.00 0.00 0.00 53 1010.7
20260902045012 64 255 3.0 8.0 0.00 0.00 0.00 53 1010.6
20260902044510 64 191 0.0 7.0 0.00 0.00 0.00 53 1010.6
20260902044009 64 333 1.0 8.0 0.00 0.00 0.00 52 1010.4
20260902043508 64 191 1.0 10.0 0.00 0.00 0.00 52 1010.3
20260902043014 65 276 3.0 10.0 0.00 0.00 0.00 52 1010.4
20260902042508 65 260 2.0 10.0 0.00 0.00 0.00 52 1010.3
20260902042008 65 250 1.0 5.0 0.00 0.00 0.00 51 1010.2
20260902041507 65 191 0.0 4.0 0.00 0.00 0.00 51 1010.1
20260902041006 65 277 0.0 18.0 0.00 0.00 0.00 50 1010.2
20260902040507 65 232 6.0 18.0 0.00 0.00 0.00 50 1010.1
20260902040006 65 260 0.0 8.0 0.00 0.00 0.00 51 1010.1
20260902035506 65 326 2.0 8.0 0.00 0.00 0.00 50 1010.1
20260902035006 65 191 1.0 6.0 0.00 0.00 0.00 51 1010.0
20260902034505 65 337 1.0 12.0 0.00 0.00 0.00 49 1009.9
20260902034005 65 191 4.0 12.0 0.00 0.00 0.00 49 1009.8
20260902033505 65 240 3.0 9.0 0.00 0.00 0.00 50 1009.8
20260902033010 65 191 2.0 8.0 0.00 0.00 0.00 50 1009.6
20260902032507 65 356 1.0 8.0 0.00 0.00 0.00 51 1009.7
20260902032005 65 191 2.0 8.0 0.00 0.00 0.00 51 1009.6
20260902031505 65 191 0.0 12.0 0.00 0.00 0.00 51 1009.7
20260902031005 65 262 2.0 12.0 0.00 0.00 0.00 51 1009.8
20260902030504 65 355 0.0 8.0 0.00 0.00 0.00 52 1009.8
20260902030004 65 343 1.0 13.0 0.00 0.00 0.00 51 1009.8
20260902025504 65 269 5.0 13.0 0.00 0.00 0.00 51 1009.8
20260902025004 65 249 0.0 6.0 0.00 0.00 0.00 52 1009.7
20260902024504 65 225 0.0 6.0 0.00 0.00 0.00 51 1009.8
20260902024003 65 207 0.0 9.0 0.00 0.00 0.00 52 1009.8
20260902023505 65 347 1.0 9.0 0.00 0.00 0.00 52 1009.6
20260902023003 65 256 0.0 6.0 0.00 0.00 0.00 52 1009.4
20260902022503 66 191 1.0 6.0 0.00 0.00 0.00 52 1009.4
20260902022002 66 260 2.0 7.0 0.00 0.00 0.00 51 1009.4
20260902021507 66 191 3.0 15.0 0.00 0.00 0.00 51 1009.4
20260902021003 66 25 1.0 16.0 0.00 0.00 0.00 50 1009.4
20260902020502 66 25 2.0 12.0 0.00 0.00 0.00 51 1009.4
20260902020002 66 269 0.0 9.0 0.00 0.00 0.00 52 1009.3
20260902015502 66 267 1.0 6.0 0.00 0.00 0.00 51 1009.4
20260902015003 67 256 1.0 7.0 0.00 0.00 0.00 51 1009.4
20260902014505 67 191 0.0 9.0 0.00 0.00 0.00 52 1009.4
20260902014001 67 310 0.0 11.0 0.00 0.00 0.00 51 1009.5
20260902013502 67 258 3.0 11.0 0.00 0.00 0.00 50 1009.5
20260902013002 67 235 2.0 11.0 0.00 0.00 0.00 48 1009.4
20260902012501 67 353 1.0 8.0 0.00 0.00 0.00 49 1009.4
20260902012001 67 271 2.0 8.0 0.00 0.00 0.00 48 1009.3
20260902011501 68 323 2.0 13.0 0.00 0.00 0.00 50 1009.1
20260902011001 68 273 5.0 13.0 0.00 0.00 0.00 49 1009.2
20260902010502 68 191 2.0 10.0 0.00 0.00 0.00 49 1009.2
20260902010001 68 318 4.0 10.0 0.00 0.00 0.00 49 1009.1
20260902005502 68 260 4.0 9.0 0.00 0.00 0.00 48 1009.0
20260902005001 68 271 2.0 12.0 0.00 0.00 0.00 48 1009.0
20260902004601 68 252 3.0 12.0 0.00 0.00 0.00 48 1009.0
20260902004100 69 259 5.0 9.0 0.00 0.00 0.00 48 1009.0
20260902003600 68 255 4.0 15.0 0.00 0.00 0.00 49 1008.9
20260902003100 68 276 3.0 15.0 0.00 0.00 0.00 48 1008.9
20260902002559 69 277 7.0 15.0 0.00 0.00 0.00 47 1008.8
20260902002059 69 191 1.0 12.0 0.00 0.00 0.00 47 1008.9
20260902001600 70 252 3.0 12.0 0.00 0.00 0.00 46 1008.9
20260902001102 71 352 2.0 8.0 0.00 0.00 0.00 45 1008.8
20260902000559 69 261 2.0 8.0 0.00 0.00 0.00 46 1008.8
20260902000059 70 237 2.0 6.0 0.00 0.00 0.00 46 1009.0
20260901235603 69 264 0.0 9.0 0.00 0.00 0.00 47 1009.0
20260901235100 69 241 2.0 10.0 0.00 0.00 0.00 47 1009.0
20260901235002 69 272 3.0 10.0 0.00 0.00 0.00 45 1009.0
20260901234608 69 348 5.0 10.0 0.00 0.00 0.00 46 1009.1
20260901234058 69 274 0.0 12.0 0.00 0.00 0.00 46 1009.1
20260901233559 69 301 4.0 12.0 0.00 0.00 0.00 46 1009.1
20260901233108 70 256 3.0 17.0 0.00 0.00 0.00 46 1009.0
20260901232601 69 267 7.0 17.0 0.00 0.00 0.00 47 1008.9
20260901232058 69 275 5.0 14.0 0.00 0.00 0.00 50 1008.9
20260901231600 69 282 7.0 15.0 0.00 0.00 0.00 48 1009.0
20260901231057 70 268 5.0 14.0 0.00 0.00 0.00 48 1009.0
20260901230558 68 228 1.0 11.0 0.00 0.00 0.00 50 1009.0
20260901230058 69 237 4.0 11.0 0.00 0.00 0.00 50 1009.0
20260901225557 69 27 2.0 8.0 0.00 0.00 0.00 48 1009.0
20260901225058 69 325 1.0 13.0 0.00 0.00 0.00 48 1009.0
20260901224558 71 269 2.0 13.0 0.00 0.00 0.00 46 1008.9
20260901224056 72 245 3.0 10.0 0.00 0.00 0.00 47 1008.9
20260901223556 71 191 3.0 10.0 0.00 0.00 0.00 44 1009.0
20260901223056 72 191 2.0 12.0 0.00 0.00 0.00 43 1008.9
20260901222555 71 358 2.0 12.0 0.00 0.00 0.00 44 1008.9
20260901222057 71 259 3.0 19.0 0.00 0.00 0.00 45 1009.0
20260901221618 72 239 11.0 19.0 0.00 0.00 0.00 43 1008.7
20260901221055 73 240 6.0 19.0 0.00 0.00 0.00 41 1008.8
20260901220554 73 228 9.0 19.0 0.00 0.00 0.00 42 1008.6
20260901220107 74 262 6.0 15.0 0.00 0.00 0.00 41 1008.6
20260901215555 74 264 8.0 19.0 0.00 0.00 0.00 41 1008.5
20260901215059 75 221 6.0 19.0 0.00 0.00 0.00 39 1008.7
20260901214554 74 277 3.0 13.0 0.00 0.00 0.00 40 1008.6
20260901214053 75 279 4.0 14.0 0.00 0.00 0.00 40 1008.7
20260901213553 74 191 4.0 17.0 0.00 0.00 0.00 41 1008.7
20260901213108 75 325 8.0 17.0 0.00 0.00 0.00 40 1008.8
20260901212553 75 267 9.0 17.0 0.00 0.00 0.00 40 1008.7
20260901212052 75 257 9.0 17.0 0.00 0.00 0.00 42 1008.6
20260901211554 74 256 7.0 17.0 0.00 0.00 0.00 43 1008.5
20260901211053 75 240 9.0 23.0 0.00 0.00 0.00 40 1008.7
20260901210551 74 259 7.0 23.0 0.00 0.00 0.00 44 1008.8
20260901210050 73 251 11.0 19.0 0.00 0.00 0.00 42 1008.6
20260901205553 73 262 8.0 21.0 0.00 0.00 0.00 44 1008.8
20260901205053 73 191 5.0 17.0 0.00 0.00 0.00 44 1008.8
20260901204549 73 191 5.0 18.0 0.00 0.00 0.00 44 1008.7
20260901204051 72 191 6.0 18.0 0.00 0.00 0.00 45 1008.7
20260901203548 72 223 4.0 13.0 0.00 0.00 0.00 45 1008.8
20260901203059 73 258 3.0 22.0 0.00 0.00 0.00 45 1008.9
20260901202548 72 257 9.0 25.0 0.00 0.00 0.00 44 1008.8
20260901202048 72 191 9.0 25.0 0.00 0.00 0.00 45 1008.9
20260901201547 72 258 11.0 22.0 0.00 0.00 0.00 44 1008.8
20260901201047 72 258 7.0 22.0 0.00 0.00 0.00 44 1008.8
20260901200546 71 249 6.0 22.0 0.00 0.00 0.00 44 1009.0
20260901200052 71 245 6.0 23.0 0.00 0.00 0.00 45 1008.9
20260901195549 71 191 14.0 23.0 0.00 0.00 0.00 45 1008.9
20260901195045 71 227 9.0 18.0 0.00 0.00 0.00 45 1008.9
20260901194545 72 250 8.0 21.0 0.00 0.00 0.00 44 1009.0
20260901194044 72 244 4.0 21.0 0.00 0.00 0.00 44 1009.0
20260901193544 72 243 8.0 22.0 0.00 0.00 0.00 45 1009.1
20260901193057 71 254 12.0 24.0 0.00 0.00 0.00 46 1009.3